CZ-4C R/B (52913 NORAD) Tracking and Keplerian Element Data

This shows tracking and keplerian element data for the satellite.

Feedback or suggestion? Click here.




ElementValue
Catalog52913
NameCZ-4C R/B
Epoch Orbit212
Epoch Day192.7752347
Epoch Year2022
RAAN80.9277
Inclination97.9713
Eccentricity0.0073306
Argument of Perigee358.577
Mean Anonmoly1.5237
Mean Motion15.07317239
Decay Rate2.684E-05
L11 52913U 22069B 22192.77523470 .00002684 00000+0 17181-3 0 9990
L22 52913 97.9713 80.9277 0073306 358.5770 1.5237 15.07317239 2126

Live tracking and technical data element details for CZ-4C R/B (NORAD 52913). CZ-4C R/B can be tracked NOW for your location showing map with azimuth and elevation plus other details from your city location.

Track the satellite on the map from your city or location and see movement details for azimuth, elevation, latitude, longitude, range, height, and movement on the map or in text.







IsCatalogInMostPopularTable: catalog: 52913, numindb: 9
Update: records affected: 1



GetName: 52913 CZ-4C R/B

Hit Count: updated at: Sun, 25 Sep 2022 07:38:02 GMT